| time (UTC) | temp C | wind direction | speed KPH | gust KPH | rain 1hr cm | rain 24hr cm | rain mn cm | humidity % | barometer mb |
| 20260506124536 | 14 | 58 | 9.7 | 19.3 | 0.00 | 0.00 | 0.00 | 85 | 1010.7 |
| 20260506123035 | 15 | 37 | 9.7 | 14.5 | 0.00 | 0.00 | 0.00 | 84 | 1010.9 |
| 20260506121534 | 15 | 30 | 4.8 | 11.3 | 0.00 | 0.00 | 0.00 | 85 | 1010.3 |
| 20260506120039 | 15 | 25 | 6.4 | 17.7 | 0.00 | 0.00 | 0.00 | 84 | 1010.2 |
| 20260506114538 | 15 | 32 | 1.6 | 11.3 | 0.00 | 0.00 | 0.00 | 84 | 1010.3 |
| 20260506113033 | 16 | 1 | 4.8 | 9.7 | 0.00 | 0.00 | 0.00 | 84 | 1010.1 |
| 20260506111533 | 16 | 8 | 3.2 | 12.9 | 0.00 | 0.00 | 0.00 | 84 | 1010.0 |
| 20260506110038 | 16 | 17 | 3.2 | 9.7 | 0.00 | 0.00 | 0.00 | 83 | 1010.1 |
| 20260506104537 | 16 | 347 | 6.4 | 11.3 | 0.00 | 0.00 | 0.00 | 83 | 1010.2 |
| 20260506103035 | 16 | 321 | 1.6 | 6.4 | 0.00 | 0.00 | 0.00 | 83 | 1010.1 |
| 20260506101534 | 17 | 15 | 1.6 | 9.7 | 0.00 | 0.00 | 0.00 | 83 | 1009.8 |
| 20260506100032 | 17 | 6 | 4.8 | 8.0 | 0.00 | 0.00 | 0.00 | 82 | 1009.7 |
| 20260506094536 | 17 | 335 | 1.6 | 4.8 | 0.00 | 0.00 | 0.00 | 84 | 1009.7 |
| 20260506093036 | 17 | 11 | 1.6 | 4.8 | 0.00 | 0.00 | 0.00 | 84 | 1009.5 |
| 20260506091536 | 17 | 8 | 1.6 | 3.2 | 0.00 | 0.00 | 0.00 | 83 | 1009.2 |
| 20260506090035 | 17 | 14 | 1.6 | 4.8 | 0.00 | 0.00 | 0.00 | 84 | 1009.0 |
| 20260506084540 | 17 | 337 | 1.6 | 4.8 | 0.00 | 0.00 | 0.00 | 84 | 1009.1 |
| 20260506083037 | 17 | 41 | 1.6 | 8.0 | 0.00 | 0.00 | 0.00 | 85 | 1009.0 |
| 20260506081535 | 17 | 42 | 1.6 | 6.4 | 0.00 | 0.00 | 0.00 | 85 | 1009.1 |
| 20260506073035 | 17 | 0 | 0.0 | 1.6 | 0.00 | 0.00 | 0.00 | 86 | 1008.6 |
| 20260506071536 | 18 | 0 | 1.6 | 3.2 | 0.00 | 0.00 | 0.00 | 85 | 1008.8 |
| 20260506061535 | 21 | 0 | 0.0 | 1.6 | 0.00 | 0.00 | 0.00 | 86 | 1008.5 |
| 20260506044543 | 22 | 204 | 1.6 | 3.2 | 0.00 | 0.00 | 0.00 | 81 | 1008.6 |
| 20260506043035 | 22 | 162 | 0.0 | 3.2 | 0.00 | 0.00 | 0.00 | 80 | 1008.5 |
| 20260506041534 | 22 | 264 | 0.0 | 8.0 | 0.00 | 0.00 | 0.00 | 79 | 1008.6 |
| 20260506040035 | 22 | 252 | 1.6 | 4.8 | 0.00 | 0.00 | 0.00 | 80 | 1008.6 |
| 20260506034538 | 22 | 250 | 1.6 | 6.4 | 0.00 | 0.00 | 0.00 | 80 | 1008.4 |
| 20260506033038 | 22 | 165 | 4.8 | 8.0 | 0.00 | 0.00 | 0.00 | 76 | 1008.2 |
| 20260506031537 | 23 | 204 | 3.2 | 8.0 | 0.00 | 0.00 | 0.00 | 74 | 1008.0 |
| 20260506030055 | 23 | 197 | 4.8 | 8.0 | 0.00 | 0.00 | 0.00 | 71 | 1007.8 |
| 20260506024547 | 22 | 182 | 3.2 | 4.8 | 0.00 | 0.00 | 0.00 | 73 | 1007.8 |
| 20260506023034 | 23 | 114 | 1.6 | 3.2 | 0.00 | 0.00 | 0.00 | 68 | 1007.5 |
| 20260506021537 | 24 | 0 | 0.0 | 6.4 | 0.00 | 0.00 | 0.00 | 66 | 1007.1 |
| 20260506020035 | 25 | 146 | 0.0 | 3.2 | 0.00 | 0.00 | 0.00 | 58 | 1006.9 |
| 20260506014539 | 25 | 141 | 1.6 | 3.2 | 0.00 | 0.00 | 0.00 | 59 | 1006.7 |
| 20260506013036 | 26 | 135 | 1.6 | 3.2 | 0.00 | 0.00 | 0.00 | 61 | 1006.4 |
| 20260506011539 | 26 | 85 | 1.6 | 3.2 | 0.00 | 0.00 | 0.00 | 55 | 1006.3 |
| 20260506010043 | 28 | 181 | 0.0 | 0.0 | 0.00 | 0.00 | 0.00 | 50 | 1006.0 |
| 20260506004545 | 31 | 180 | 1.6 | 3.2 | 0.00 | 0.00 | 0.00 | 43 | 1005.7 |
| 20260506003039 | 33 | 0 | 0.0 | 3.2 | 0.00 | 0.00 | 0.00 | 41 | 1005.8 |
| 20260506001536 | 33 | 202 | 1.6 | 4.8 | 0.00 | 0.00 | 0.00 | 37 | 1005.8 |
| 20260506000033 | 35 | 197 | 1.6 | 4.8 | 0.00 | 0.00 | 0.00 | 35 | 1006.0 |
| 20260505234538 | 36 | 0 | 0.0 | 3.2 | 0.00 | 0.00 | 0.00 | 33 | 1006.0 |
| 20260505233035 | 33 | 232 | 0.0 | 4.8 | 0.00 | 0.00 | 0.00 | 38 | 1006.0 |
| 20260505231533 | 31 | 281 | 0.0 | 6.4 | 0.00 | 0.00 | 0.00 | 39 | 1006.0 |
| 20260505230045 | 32 | 260 | 1.6 | 6.4 | 0.00 | 0.00 | 0.00 | 39 | 1005.9 |
| 20260505224537 | 32 | 274 | 3.2 | 11.3 | 0.00 | 0.00 | 0.00 | 36 | 1006.2 |
| 20260505223036 | 32 | 297 | 4.8 | 12.9 | 0.00 | 0.00 | 0.00 | 35 | 1006.3 |
| 20260505221533 | 32 | 268 | 4.8 | 11.3 | 0.00 | 0.00 | 0.00 | 36 | 1006.0 |
| 20260505220040 | 32 | 268 | 9.7 | 16.1 | 0.00 | 0.00 | 0.00 | 35 | 1006.3 |
| 20260505214535 | 32 | 315 | 8.0 | 17.7 | 0.00 | 0.00 | 0.00 | 37 | 1006.4 |
| 20260505213043 | 32 | 267 | 4.8 | 14.5 | 0.00 | 0.00 | 0.00 | 35 | 1006.3 |
| 20260505211542 | 32 | 278 | 6.4 | 16.1 | 0.00 | 0.00 | 0.00 | 38 | 1006.3 |
| 20260505210033 | 32 | 279 | 4.8 | 12.9 | 0.00 | 0.00 | 0.00 | 35 | 1006.3 |
| 20260505204536 | 32 | 281 | 3.2 | 11.3 | 0.00 | 0.00 | 0.00 | 42 | 1006.5 |
| 20260505203041 | 31 | 198 | 3.2 | 14.5 | 0.00 | 0.00 | 0.00 | 43 | 1006.4 |
| 20260505201536 | 31 | 251 | 4.8 | 14.5 | 0.00 | 0.00 | 0.00 | 41 | 1006.7 |
| 20260505200037 | 31 | 300 | 6.4 | 12.9 | 0.00 | 0.00 | 0.00 | 39 | 1006.9 |
| 20260505194535 | 31 | 255 | 6.4 | 14.5 | 0.00 | 0.00 | 0.00 | 42 | 1007.0 |
| 20260505193044 | 31 | 240 | 8.0 | 12.9 | 0.00 | 0.00 | 0.00 | 42 | 1007.1 |
| 20260505191540 | 31 | 199 | 4.8 | 16.1 | 0.00 | 0.00 | 0.00 | 41 | 1007.0 |
| 20260505190040 | 30 | 278 | 4.8 | 17.7 | 0.00 | 0.00 | 0.00 | 36 | 1007.3 |
| 20260505184536 | 30 | 217 | 6.4 | 11.3 | 0.00 | 0.00 | 0.00 | 46 | 1007.3 |
| 20260505183035 | 30 | 268 | 6.4 | 16.1 | 0.00 | 0.00 | 0.00 | 49 | 1007.7 |
| 20260505181533 | 29 | 208 | 4.8 | 9.7 | 0.00 | 0.00 | 0.00 | 56 | 1008.0 |
| 20260505180043 | 29 | 237 | 4.8 | 14.5 | 0.00 | 0.00 | 0.00 | 61 | 1008.4 |
| 20260505174535 | 28 | 240 | 4.8 | 19.3 | 0.00 | 0.00 | 0.00 | 62 | 1008.4 |
| 20260505173035 | 27 | 264 | 9.7 | 19.3 | 0.00 | 0.00 | 0.00 | 64 | 1008.6 |
| 20260505171534 | 27 | 272 | 9.7 | 19.3 | 0.00 | 0.00 | 0.00 | 66 | 1008.8 |
| 20260505170038 | 26 | 200 | 11.3 | 22.5 | 0.00 | 0.00 | 0.00 | 68 | 1008.8 |
| 20260505164540 | 26 | 207 | 9.7 | 16.1 | 0.00 | 0.00 | 0.00 | 70 | 1008.8 |
| 20260505163040 | 25 | 213 | 11.3 | 19.3 | 0.00 | 0.00 | 0.00 | 73 | 1008.6 |
| 20260505161535 | 24 | 244 | 11.3 | 19.3 | 0.00 | 0.00 | 0.00 | 75 | 1008.5 |
| 20260505153042 | 23 | 255 | 12.9 | 24.1 | 0.00 | 0.00 | 0.00 | 78 | 1008.6 |
| 20260505151538 | 22 | 226 | 16.1 | 30.6 | 0.00 | 0.00 | 0.00 | 79 | 1008.7 |